Location: Albany
(35.0170°S, 117.8920°E)
Time: 01:06:09
(UTC+08:00)

Explorer 7 - Pass Details

Date: 24 January 2021
Orbit: 484 x 677 km, 50.3° (Epoch: 01 March)

Event Time Altitude Azimuth Distance (km) Brightness Sun altitude
Rises 19:49:46 0° 230° (SW) 2,972 12.7 -6.1°
Reaches altitude 10° 19:53:45 10° 198° (SSW) 2,014 10.5 -6.8°
Maximum altitude 19:55:26 12° 177° (S) 1,876 9.9 -7.1°
Drops below altitude 10° 19:57:06 10° 155° (SSE) 1,968 9.7 -7.4°
Sets 20:00:51 0° 122° (ESE) 2,812 10.2 -8.1°
